Regional Weather Roundup
Issued by NWS Mobile, AL

Home | Current Version | Previous Version | Text Only | Print | Product List | Glossary On
Versions: 1 2 3 4 5 6 7 8 9 10 11 12 13 14 15 16 17 18 19 20 21 22 23 24 25 26 27 28 29 30 31 32 33 34 35 36 37 38 39 40 41 42 43 44 45 46 47 48 49 50
000
ASUS44 KMOB 280316
RWRMOB
REGIONAL WEATHER ROUNDUP
NATIONAL WEATHER SERVICE MOBILE AL
1000 PM CDT MON JUL 27 2015

ALZ061>064-280400-
COASTAL ALABAMA


CITY           SKY/WX    TMP DP  RH WIND       PRES   REMARKS
MOBILE REG APT MOCLDY    81  74  79 W3        29.96R
BROOKLEY FIELD CLEAR     83  74  74 W5        29.96R
GULF SHORES    CLEAR     79  75  86 W3        29.94S

$$

ALZ051>060-280400-
INTERIOR SOUTHWEST AND SOUTH CENTRAL ALABAMA


CITY           SKY/WX    TMP DP  RH WIND       PRES   REMARKS
ANDALUSIA/OPP  PTCLDY    83  74  74 CALM      29.96R
EVERGREEN      MOCLDY    80  73  79 CALM      29.97R
FLORALA        CLEAR     78  72  81 CALM      29.97R
GREENVILLE     FAIR      79  75  87 CALM      29.96R

$$

FLZ001>006-280400-
WESTERN FLORIDA PANHANDLE


CITY           SKY/WX    TMP DP  RH WIND       PRES   REMARKS
CRESTVIEW      PTCLDY    81  72  74 CALM      29.95S
DESTIN         CLEAR     86  73  65 VRB3      29.93S
DUKE FIELD     PTCLDY    83  69  63 CALM      29.95R
MARY ESTHER    CLEAR     84  69  59 CALM      29.93R
MILTON         NOT AVBL
PENSACOLA      CLEAR     84  73  69 W6        29.94R
NAS PENSACOLA  PTCLDY    79  73  82 CALM      29.94R
VALPARAISO     PTCLDY    83  70  66 NW2       29.94R

$$

...MARINE OBSERVATIONS...

STATION/POSITION TIME  SKY/WX   TEMP    WIND        PRES    VSBY
                                AIR SEA DIR/SP/G
                 (UTC)          (F)     (DEG/KT/KT) (MB)    (MI)
PASCAGOULA       0200            87     240/  5/  7 1013.8R
PETIT BOIS ISL   0200            86     240/  8/  9 1014.5R
E DAUPHIN ISLAND 0300            85     250/  5/  7 1014.0R
MIDDLE BAY LIGHT 0200            86     250/ 12     1012.9S
USCG MOBILE BAY  0200            86 85  250/  5/  7 1012.8R
STATE DOCKS      0200            88 88              1013.6R
MEAHER PARK      0300            86     260/  4     1013.5R
12 S ORANGE BCH  0250            86 85  260/  8/ 10 1013.4R
WVE H/P(F/S)=  1

PENSACOLA BAY    0200            86 88  280/  5/  7 1014.0R
64 S DAUPHIN ISL 0250            85 88  280/  2/  2 1014.4R
WVE H/P(F/S)=  1/ 4

67 S FORT MORGAN 0230            85        CALM     1013.9S
115 SE PENSACOLA 0250            86 87  280/  8/ 10 1014.1R
WVE H/P(F/S)=  1/ 5

MID GULF/42001   0250            83 86  180/  4/  6 1015.3R
WVE H/P(F/S)=  1/ 6

EAST GULF/42003  0250            82 84  250/  6/  8 1015.4R
WVE H/P(F/S)=  2/ 5


$$

...NEARBY LOCATIONS

CITY           SKY/WX    TMP DP  RH WIND       PRES   REMARKS
GULFPORT       CLEAR     81  74  79 CALM      29.94R
BILOXI         CLEAR     82  73  74 SW5       29.94R
PASCAGOULA     CLEAR     78  75  90 CALM      29.95R
HATTIESBURG    CLEAR     81  76  84 S3        29.95R
LAUREL         CLEAR     79  70  73 CALM      29.97R
MERIDIAN       CLEAR     80  76  87 CALM      29.96R
MERIDIAN NAS   MOCLDY    81  74  79 NW5       29.96R
MONTGOMERY     CLEAR     84  75  74 NW3       29.95R
MAXWELL AFB    PTCLDY    82  76  81 N2        29.95R
TROY           CLEAR     78  75  90 CALM      29.96R
FORT RUCKER    CLEAR     79  74  84 CALM      29.94R
DALEVILLE      CLEAR     84  73  70 CALM      29.95R
DOTHAN         CLEAR     83  74  74 CALM      29.98R

$$

...OTHER SURROUNDING LOCATIONS...

CITY           SKY/WX    TMP DP  RH WIND       PRES   REMARKS
BIRMINGHAM     PTCLDY    76  75  97 CALM      30.01R
TUSCALOOSA     PTCLDY    83  74  74 NE5       29.96R
COLUMBUS GA    MOCLDY    87  71  58 NW3       29.95R
PANAMA CITY    NOT AVBL
TALLAHASSEE    MOCLDY    82  75  79 SW3       29.93R
BATON ROUGE    CLEAR     80  72  76 W3        29.95R
NEW ORLEANS    PTCLDY    84  73  69 S8        29.95R
SLIDELL        CLEAR     78  74  87 CALM      29.94R
JACKSON        CLEAR     83  70  64 SE7       29.95R
MCCOMB         CLEAR     81  74  79 CALM      29.96R

$$

...SURROUNDING MARINE OBSERVATIONS...

STATION/POSITION TIME  SKY/WX   TEMP    WIND        PRES    VSBY
                                AIR SEA DIR/SP/G
                 (UTC)          (F)     (DEG/KT/KT) (MB)    (MI)
WAVELAND         0200            85 89  210/  3/  4 1014.1S
PASCAGOULA RGN A 0200            87     240/  6/  8 1013.5R
PASCAGOULA PORT  0200               87                N/A
GRAND ISLE       0200            86 91  180/  3/  4 1014.3R
SOUTHWEST PASS   0300            85     140/  4/  5 1014.9R
PILOT STATION E  0200            86 87  140/  4/  6 1014.8R
SHELL BEACH      0200            85 90  180/  5/  6 1013.4F
PANAMA CITY      0200            86 87  310/  6/  7 1012.9R
APALACHICOLA     0200            83 89  350/  2/  4 1013.3F
TYNDALL TOWER C  0300            83     300/ 11/ 11 1013.4R
S APLCHCLA/42036 0250            86 85  290/ 10/ 12 1013.6R
WVE H/P(F/S)=  2/ 5


$$



USA.gov is the U.S. government's official web portal to all federal, state and local government web resources and services.